Printer-friendly version

IAU Minor Planet Center

Minor Planet Center

MPEC 2006-C56 : 2006 CX10

The following Minor Planet Electronic Circular may be linked-to from your own Web pages, but must not otherwise be redistributed electronically.


Read MPEC 2006-C55 Read MPEC 2006-C57


M.P.E.C. 2006-C56                                Issued 2006 Feb. 10, 02:57 UT

     The Minor Planet Electronic Circulars contain information on unusual
         minor planets and routine data on comets.  They are published
   on behalf of Commission 20 of the International Astronomical Union by the
          Minor Planet Center, Smithsonian Astrophysical Observatory,
                          Cambridge, MA 02138, U.S.A.

                  Supported in part by the Brinson Foundation
                  Supported in part by the TABASGO Foundation
             Prepared using the Tamkin Foundation Computer Network

                              MPC@CFA.HARVARD.EDU
          URL http://cfa-www.harvard.edu/iau/mpc.html  ISSN 1523-6714

                                   2006 CX10

Observations:
     K06C10X* C2006 02 07.41334 14 47 32.02 +20 43 54.7          19.2   EC056704
     K06C10X  C2006 02 07.42640 14 47 33.72 +20 43 44.4          19.9   EC056704
     K06C10X  C2006 02 07.43904 14 47 35.38 +20 43 32.9          19.8   EC056704
     K06C10X  C2006 02 07.45162 14 47 37.04 +20 43 22.5          19.9   EC056704
     K06C10X  C2006 02 07.46460 14 47 38.66 +20 43 09.7          19.8   EC056704
     K06C10X  C2006 02 09.39181 14 51 50.17 +20 13 58.4          19.6   EC056H55
     K06C10X  C2006 02 09.41136 14 51 52.68 +20 13 41.0          19.5   EC056H55
     K06C10X  C2006 02 09.42653 14 51 54.59 +20 13 26.6          19.8   EC056H55
     K06C10X 5C2006 02 09.53773 14 52 09.00 +20 11 43.9          18.7 R EC056673
     K06C10X 5C2006 02 09.54109 14 52 09.45 +20 11 40.6                 EC056673
     K06C10X 5C2006 02 09.54572 14 52 10.01 +20 11 36.8                 EC056673
     K06C10X 5C2006 02 09.55220 14 52 10.79 +20 11 30.8                 EC056673
     K06C10X  C2006 02 10.05056 14 53 15.89 +20 03 39.4                 EC056J95
     K06C10X  C2006 02 10.05476 14 53 16.50 +20 03 35.9                 EC056J95
     K06C10X  C2006 02 10.06045 14 53 17.16 +20 03 30.2          19.5 R EC056J95

Observer details:
673 Table Mountain Observatory, Wrightwood.  Observer J. Young.  0.6-m f/16
    Cassegrain + CCD.
704 Lincoln Laboratory ETS, New Mexico.  Observers M. Bezpalko, L. Manguso,
    D. Torres, R. Kracke, M. Blythe, H. Love.  Measurers J. Stuart, J. Kommers.
    1.0-m f/2.15 reflector + CCD.
H55 Antares Obseratory, Charleston.  Observer R. Holmes.  Measurers K. Mills,
    N. Stewart.  0.40-m f/10 Schmidt-Cassegrain + CCD.
J95 Great Shefford.  Observer P. Birtwhistle.  0.40-m f/6.0 Schmidt-Cassegrain
    + CCD.

Orbital elements:
2006 CX10                                                Earth MOID = 0.2633 AU
Epoch 2006 Mar. 6.0 TT = JDT 2453800.5                  MPC
M 349.63987              (2000.0)            P               Q
n   0.23325816     Peri.  188.22993     -0.76426719     +0.59511727
a   2.6136343      Node    32.69212     -0.56239912     -0.42650655
e   0.5272082      Incl.   27.38712     -0.31559926     -0.68112231
P   4.23           H   16.9           G   0.15           U   8
Residuals in seconds of arc
060207 704  0.6-  1.2-    060209 H55  0.7-  0.2-    060209 673  0.3+  0.0
060207 704  0.3-  0.0     060209 H55  0.3-  0.4+    060209 673  0.2-  0.1+
060207 704  0.3+  0.4-    060209 H55  0.4-  0.0     060210 J95  0.4-  0.2-
060207 704  1.1+  0.2+    060209 673  0.3+  0.3-    060210 J95  0.6+  0.2+
060207 704  0.6+  1.1-    060209 673  0.6+  0.5-    060210 J95  0.4-  0.2-

Ephemeris:
2006 CX10                a,e,i = 3.47, 0.63, 28                  q = 1.2692
Date    TT    R. A. (2000) Decl.     Delta      r     Elong.  Phase     V
2006 02 04    14 40.04   +21 32.7    0.972    1.528   102.6    39.0    19.1
2006 02 14    15 01.74   +18 58.8    0.856    1.468   105.3    40.5    18.8
2006 02 24    15 22.67   +15 42.6    0.747    1.413   108.2    41.7    18.4
2006 03 06    15 42.65   +11 22.9    0.644    1.366   111.4    42.5    18.1
2006 03 16    16 01.62   +05 28.3    0.551    1.327   115.2    42.7    17.7
2006 03 26    16 19.57   -02 42.2    0.470    1.297   119.8    41.8    17.3
2006 04 05    16 36.32   -13 50.1    0.406    1.277   125.1    39.9    16.9
2006 04 15    16 51.67   -27 58.0    0.367    1.269   129.7    37.4    16.6
2006 04 25    17 05.06   -43 30.6    0.359    1.273   131.6    36.2    16.5
2006 05 05    17 14.96   -57 38.7    0.381    1.288   130.2    36.7    16.6
2006 05 15    17 18.80   -68 26.3    0.427    1.314   127.3    37.7    17.0
2006 05 25    17 11.98   -75 38.6    0.487    1.350   124.6    38.2    17.3
2006 06 04    16 50.74   -79 46.8    0.555    1.394   122.6    37.8    17.7
2006 06 14    16 22.74   -81 31.1    0.629    1.446   121.3    36.9    18.0
2006 06 24    16 06.79   -81 34.6    0.706    1.504   120.6    35.6    18.3
2006 07 04    16 11.85   -80 33.8    0.788    1.567   120.0    34.2    18.6
2006 07 14    16 31.70   -78 50.9    0.875    1.634   119.4    32.8    18.9
2006 07 24    16 57.69   -76 36.4    0.968    1.704   118.4    31.6    19.1
2006 08 03    17 25.04   -73 58.0    1.068    1.776   117.0    30.6    19.4
2006 08 13    17 51.60   -71 03.3    1.177    1.850   115.1    29.7    19.7
2006 08 23    18 16.62   -67 58.4    1.295    1.925   112.5    29.0    20.0
2006 09 02    18 40.15   -64 48.8    1.424    2.000   109.4    28.4    20.2
2006 09 12    19 02.32   -61 38.7    1.562    2.076   105.8    27.8    20.5
2006 09 22    19 23.30   -58 31.0    1.711    2.152   101.7    27.2    20.7
2006 10 02    19 43.30   -55 27.5    1.868    2.227    97.2    26.5    21.0
2006 10 12    20 02.45   -52 29.4    2.033    2.302    92.4    25.7    21.2
2006 10 22    20 20.85   -49 37.1    2.204    2.377    87.4    24.7    21.4
2006 11 01    20 38.63   -46 50.7    2.381    2.451    82.1    23.7    21.6
2006 11 11    20 55.81   -44 10.2    2.561    2.524    76.7    22.4    21.8
2006 11 21    21 12.48   -41 35.3    2.742    2.596    71.1    21.1    22.0

Timothy B. Spahr             (C) Copyright 2006 MPC           M.P.E.C. 2006-C56

Read MPEC 2006-C55 Read MPEC 2006-C57


Our Web policy. Index to the CBAT/MPC/ICQ pages.


Valid HTML 4.01!